Content
SEND FEEDBACK

Daily
Averages
Monthly
Summary
United States of America

INARAJAN, GUAM


Home > North America > United States > Guam
Elevation: 85 meters     Latitude: 13 18N     Longitude: 144 44E

WEATHER
 
SELECT A DAY
Number of Records: 351,620;   Date Range: 1/1/95 - 10/20/14
 
SHARE

PRINT THIS DATA

[ ← Previous Day ]
WEATHER ALMANAC - 16 JANUARY, 2013
[ Next Day → ]
[ °F ]   °C
Weather ElementAverageHighLow
Temperature25.8 °C30 °C (12:52 pm)22 °C (7:34 am)
Dewpoint22.4 °C24 °C (5:05 pm)18 °C (7:34 am)
Humidity82.1 %94 % (10:21 pm)61 % (12:55 pm)
Barometer1011.2 hPa1012.5 hPa (7:55 am)1009.5 hPa (1:55 pm)
Wind Speed19.8 km/h31.5 km/h (2:54 pm)
Weather ElementAverage
Visibility15.4 km
Wind DirectionENE (56.9 °)

Weather ElementTotal
Precipitation0.76 mm
Cooling Degree Days7.7 (Base 18.3)
Growing Degree Days16 (Base 10)
Averaged from 85 records on 16 January, 2013
WEATHER CONDITIONS BREAKOUT
WIND DIRECTION BREAKOUT
WEATHER BY HOUR - 16 JANUARY, 2013
[ °F ]   °C
Local TimeTemperatureDewpointHumidityBarometerVisibilityWind DirectionWind SpeedGust SpeedPrecipitationEventsConditions
12:30 AM26 °C21 °C74 %1010.8 hPa16.1 kmNE (50°)14.8 km/hScattered Clouds
12:55 AM24.5 °C21.5 °C83 %1010.8 hPa16.1 kmNE (50°)14.8 km/hPartly Cloudy
1:45 AM25 °C22 °C83 %1010.5 hPa16.1 kmENE (60°)16.7 km/hOvercast
1:55 AM24.5 °C21.8 °C85 %1010.5 hPa16.1 kmEast (80°)18.5 km/hMostly Cloudy
1:59 AM25 °C22 °C83 %1010.5 hPa16.1 kmENE (70°)16.7 km/hMostly Cloudy
2:00 AM25 °C22 °C83 %1010.5 hPa16.1 kmENE (70°)14.8 km/hMostly Cloudy
2:03 AM24 °C21 °C83 %1010.5 hPa16.1 kmENE (70°)16.7 km/hScattered Clouds
2:55 AM24.1 °C20.5 °C80 %1010.5 hPa16.1 kmENE (60°)16.7 km/hClear
3:55 AM23.9 °C20.9 °C83 %1010.8 hPa16.1 kmEast (80°)16.7 km/hPartly Cloudy
4:15 AM24 °C21 °C83 %1010.5 hPa16.1 kmEast (80°)13 km/hMostly Cloudy
4:31 AM25 °C21 °C78 %1010.8 hPa16.1 kmEast (90°)14.8 km/hScattered Clouds
4:55 AM24.6 °C21.1 °C81 %1010.8 hPa16.1 kmENE (60°)16.7 km/hMostly Cloudy
5:55 AM24.7 °C21.4 °C82 %1011.2 hPa16.1 kmENE (60°)14.8 km/hMostly Cloudy
6:55 AM25 °C18.5 °C67 %1011.9 hPa16.1 kmENE (60°)16.7 km/hClear
7:25 AM25 °C22 °C83 %1012.2 hPa16.1 kmENE (60°)14.8 km/hRainLight Rain
7:34 AM22 °C18 °C78 %1012.2 hPa16.1 kmENE (60°)14.8 km/hClear
7:55 AM26.4 °C22 °C77 %1012.5 hPa16.1 kmENE (60°)14.8 km/h0 mmClear
8:55 AM24 °C18.7 °C72 %1012.5 hPa16.1 kmENE (60°)16.7 km/hClear
9:55 AM28 °C20 °C62 %1012.5 hPa16.1 kmENE (60°)18.5 km/hPartly Cloudy
10:55 AM29 °C22 °C66 %1011.9 hPa16.1 kmNE (40°)24.1 km/hScattered Clouds
11:55 AM29.3 °C23.1 °C69 %1011.2 hPa16.1 kmNE (50°)20.4 km/hPartly Cloudy
12:43 PM28 °C23 °C74 %1010.5 hPa16.1 kmENE (60°)20.4 km/hMostly Cloudy
12:52 PM30 °C23 °C66 %1010.2 hPa16.1 kmENE (70°)24.1 km/hMostly Cloudy
12:55 PM29 °C20.9 °C61 %1010.2 hPa16.1 kmENE (60°)20.4 km/hMostly Cloudy
1:02 PM30 °C22 °C62 %1010.2 hPa16.1 kmENE (60°)22.2 km/hMostly Cloudy
1:04 PM30 °C22 °C62 %1010.2 hPa16.1 kmENE (60°)20.4 km/hMostly Cloudy
1:55 PM29 °C22 °C66 %1009.5 hPa16.1 kmENE (60°)18.5 km/hScattered Clouds
2:07 PM29 °C23 °C70 %1009.5 hPa16.1 kmNE (50°)20.4 km/hMostly Cloudy
2:39 PM28 °C23 °C74 %1009.5 hPa16.1 kmNE (40°)22.2 km/hMostly Cloudy
2:44 PM28 °C22 °C70 %1009.5 hPa16.1 kmNE (50°)18.5 km/hMostly Cloudy
2:45 PM28 °C22 °C70 %1009.5 hPa16.1 kmNE (40°)20.4 km/hRainLight Rain
2:54 PM28 °C23 °C74 %1009.8 hPa16.1 kmNE (50°)31.5 km/hMostly Cloudy
2:55 PM28 °C20.4 °C63 %1009.8 hPa16.1 kmNE (50°)27.8 km/h0 mmMostly Cloudy
2:58 PM28 °C23 °C74 %1009.5 hPa16.1 kmENE (60°)27.8 km/hMostly Cloudy
2:59 PM28 °C23 °C74 %1009.8 hPa14.5 kmENE (60°)29.6 km/hLight Drizzle
3:14 PM28 °C23 °C74 %1009.8 hPa14.5 kmNE (50°)20.4 km/hOvercast
3:16 PM28 °C23 °C74 %1009.8 hPa16.1 kmNE (50°)20.4 km/hMostly Cloudy
3:55 PM24.8 °C20.2 °C75 %1009.8 hPa16.1 kmNE (50°)16.7 km/h0 mmScattered Clouds
4:04 PM24 °C20 °C78 %1009.8 hPa16.1 kmENE (60°)18.5 km/hMostly Cloudy
4:09 PM23 °C19 °C78 %1009.8 hPa16.1 kmENE (70°)20.4 km/hMostly Cloudy
4:55 PM23.2 °C18.8 °C76 %1010.5 hPa16.1 kmNE (40°)20.4 km/hScattered Clouds
4:57 PM24 °C20 °C78 %1010.5 hPa16.1 kmNE (50°)20.4 km/hMostly Cloudy
5:05 PM28 °C24 °C79 %1010.2 hPa16.1 kmENE (60°)22.2 km/hMostly Cloudy
5:24 PM27 °C24 °C84 %1010.5 hPa16.1 kmNE (50°)20.4 km/hLight Drizzle
5:33 PM26 °C23 °C83 %1010.5 hPa16.1 kmENE (60°)18.5 km/hScattered Clouds
5:54 PM23 °C21 °C88 %1010.8 hPa16.1 kmNE (50°)16.7 km/hRainLight Rain
5:55 PM22.8 °C20.3 °C86 %1010.8 hPa16.1 kmNE (50°)16.7 km/h0 mmLight Drizzle
6:04 PM25 °C23 °C89 %1010.8 hPa16.1 kmENE (60°)18.5 km/hScattered Clouds
6:55 PM26.2 °C23.6 °C86 %1011.5 hPa16.1 kmNE (50°)20.4 km/h0 mmPartly Cloudy
7:43 PM26 °C23 °C83 %1011.9 hPa16.1 kmENE (60°)22.2 km/hMostly Cloudy
7:46 PM26 °C23 °C83 %1011.9 hPa16.1 kmENE (60°)18.5 km/hMostly Cloudy
7:47 PM26 °C23 °C83 %1011.9 hPa16.1 kmENE (60°)20.4 km/hMostly Cloudy
7:50 PM26 °C23 °C83 %1011.9 hPa16.1 kmENE (60°)20.4 km/hScattered Clouds
7:55 PM25.7 °C23.1 °C85 %1011.9 hPa16.1 kmENE (60°)22.2 km/hScattered Clouds
8:55 PM25.6 °C23.2 °C86 %1011.9 hPa16.1 kmENE (60°)20.4 km/hPartly Cloudy
9:23 PM25 °C23 °C89 %1011.9 hPa16.1 kmNE (50°)20.4 km/hMostly Cloudy
9:26 PM25 °C23 °C89 %1011.9 hPa16.1 kmENE (60°)20.4 km/hMostly Cloudy
9:27 PM25 °C23 °C89 %1011.9 hPa16.1 kmENE (60°)18.5 km/hMostly Cloudy
9:31 PM25 °C23 °C89 %1011.9 hPa14.5 kmNE (50°)18.5 km/hRainLight Rain
9:39 PM26 °C24 °C89 %1011.9 hPa14.5 kmNE (50°)16.7 km/hLight Drizzle
9:41 PM26 °C24 °C89 %1011.9 hPa16.1 kmNE (50°)16.7 km/hScattered Clouds
9:44 PM26 °C24 °C89 %1011.9 hPa16.1 kmNE (50°)18.5 km/hMostly Cloudy
9:45 PM26 °C24 °C89 %1011.9 hPa16.1 kmNE (50°)18.5 km/hMostly Cloudy
9:55 PM25.6 °C23.7 °C89 %1011.9 hPa16.1 kmNE (40°)18.5 km/h0 mmScattered Clouds
10:09 PM26 °C24 °C89 %1011.9 hPa14.5 kmNE (50°)27.8 km/hRainLight Rain
10:11 PM26 °C24 °C89 %1011.9 hPa12.9 kmNE (40°)24.1 km/hRainLight Rain
10:15 PM26 °C24 °C89 %1011.9 hPa11.3 kmENE (60°)20.4 km/hRainLight Rain
10:21 PM25 °C24 °C94 %1011.5 hPa14.5 kmENE (70°)24.1 km/hMostly Cloudy
10:25 PM25 °C24 °C94 %1011.5 hPa9.7 kmENE (70°)20.4 km/hRainLight Rain
10:26 PM25 °C24 °C94 %1011.5 hPa9.7 kmENE (70°)18.5 km/hRainLight Rain
10:34 PM25 °C24 °C94 %1011.5 hPa11.3 kmENE (60°)14.8 km/hOvercast
10:37 PM25 °C24 °C94 %1011.5 hPa12.9 kmNE (50°)20.4 km/hRainHeavy Rain
10:41 PM25 °C24 °C94 %1011.9 hPa12.9 kmNE (50°)24.1 km/hRainLight Rain
10:44 PM25 °C24 °C94 %1011.5 hPa12.9 kmNE (50°)24.1 km/hRainLight Rain
10:46 PM25 °C24 °C94 %1011.5 hPa14.5 kmNE (50°)22.2 km/hOvercast
10:50 PM25 °C24 °C94 %1011.5 hPa16.1 kmENE (60°)20.4 km/hMostly Cloudy
10:55 PM25.1 °C23.6 °C91 %1011.5 hPa16.1 kmENE (60°)22.2 km/h0.76 mmMostly Cloudy
11:00 PM25 °C24 °C94 %1011.5 hPa16.1 kmNE (50°)22.2 km/hMostly Cloudy
11:17 PM25 °C24 °C94 %1011.5 hPa16.1 kmNE (50°)18.5 km/hMostly Cloudy
11:18 PM25 °C24 °C94 %1011.5 hPa16.1 kmENE (60°)20.4 km/hMostly Cloudy
11:32 PM25 °C24 °C94 %1011.5 hPa14.5 kmNE (50°)25.9 km/hRainLight Rain
11:37 PM25 °C24 °C94 %1011.5 hPa14.5 kmENE (60°)18.5 km/hRainLight Rain
11:42 PM25 °C24 °C94 %1011.5 hPa16.1 kmENE (60°)18.5 km/hMostly Cloudy
11:47 PM25 °C24 °C94 %1011.5 hPa16.1 kmNE (50°)22.2 km/hScattered Clouds
11:55 PM25.1 °C23.8 °C92 %1011.5 hPa16.1 kmNE (50°)18.5 km/h0 mmPartly Cloudy
Hourly data recorded from PGUA, located 0 kilometers away from Inarajan, Guam







STORIES FROM OUR PARTNERS